User: anonymous   Login
Location: Hamilton
(37.7830°S, 175.2830°E)
Time: 11:15:24
(UTC+13:00)
Language:

Cosmos 1633 - Orbit

View from above orbital plane
View from above orbital plane
View from above satellite
View from above satellite

Ground track
Ground track

The orbit data is extracted from the following two-line orbital elements,

1 15592U 85020A   19084.47193447  .00001112  00000-0  36744-4 0  9991
2 15592  82.5400  30.8631 0014560  52.8351 307.4216 15.30158777863075
Epoch (UTC): 25 March 2019 11:19:35
Eccentricity: 0.0014560
inclination: 82.5400°
perigee height: 465 km
apogee height: 485 km
right ascension of ascending node: 30.8631°
argument of perigee: 52.8351°
revolutions per day: 15.30158777
mean anomaly at epoch: 307.4216°
orbit number at epoch: 86307

The dashed part of the orbit path shows where the satellite is in the earth's shadow,  

DLR